Lid_Strength_Index
9 11 13 11 10 9 10 11 12 10 9 10 11 11 10 9 9 10 9 8 8 8 8 7 8 8 9 11 12 12 12 12 12 13 13 14 14 14 14 14 14 14 14 14
11 12 10 9 9 10 11 12 12 10 10 11 11 12 10 10 9 9 9 9 8 10 9 9 9 9 10 11 11 12 12 12 12 12 13 14 14 14 14 14 14 14 15 15
12 11 8 9 11 11 11 13 12 12 11 13 14 14 13 11 10 9 9 8 8 10 10 10 10 10 11 11 12 12 12 13 12 12 13 14 14 15 15 15 15 15 15 15
12 10 10 11 12 11 14 11 11 12 14 16 13 18 14 13 12 11 10 10 10 10 9 9 11 11 11 11 12 12 12 12 12 13 13 14 15 17 16 15 15 15 15 16
13 12 12 12 12 10 12 11 13 13 14 15 15 17 15 12 13 12 11 10 9 10 9 10 11 11 11 11 12 12 13 13 12 13 13 14 16 16 16 16 16 16 16 16
12 11 12 12 12 11 12 13 14 14 16 19 16 15 17 15 13 12 11 11 10 10 11 11 11 11 11 11 12 12 13 13 13 13 13 14 15 16 16 17 17 17 17 17
14 13 13 12 13 13 13 14 18 19 20 20 14 16 14 13 13 12 12 11 11 10 11 12 11 11 12 12 12 13 13 13 13 13 14 14 15 15 16 17 17 17 18 18
15 16 13 13 13 13 14 13 17 21 20 17 16 19 16 11 11 11 11 10 11 11 11 11 11 12 12 12 12 13 13 13 13 13 14 14 15 14 15 16 17 18 18 18
15 15 13 12 12 12 15 16 12 16 20 20 17 16 13 13 12 12 11 12 13 12 11 11 11 12 12 12 13 13 13 13 13 13 13 14 14 15 15 17 17 18 18 18
13 15 14 15 13 14 14 13 18 17 23 24 18 18 17 14 12 13 14 13 13 12 11 12 12 12 12 12 12 13 13 14 14 14 14 14 15 15 16 17 18 19 19 20
12 13 15 15 17 16 17 16 15 15 16 20 20 19 15 14 13 13 13 12 12 11 11 12 12 12 12 12 13 13 14 14 14 15 14 15 16 17 17 18 19 19 19 19
12 13 16 14 13 14 14 15 14 17 18 18 17 17 12 13 13 12 12 11 11 11 11 11 12 12 13 13 13 13 14 14 14 14 15 16 17 17 18 19 19 19 20 20
12 15 19 17 15 16 17 15 14 14 15 17 19 17 12 11 13 13 13 13 12 12 12 12 12 13 13 13 13 13 14 14 15 15 15 16 17 17 18 19 20 20 20 21
10 14 16 18 16 14 16 15 15 14 16 17 17 16 13 12 12 11 11 12 12 12 12 12 12 12 12 13 13 13 14 14 15 15 16 16 17 18 19 19 20 20 21 21
13 16 15 14 13 13 14 15 15 15 15 17 16 16 14 12 12 11 11 10 11 11 11 11 12 12 12 13 13 14 14 15 15 15 16 17 18 19 20 20 21 21 21 21
12 16 15 16 14 14 16 14 14 15 15 14 14 15 11 11 11 11 11 10 10 10 10 10 11 13 13 13 13 15 15 15 15 15 16 18 19 20 20 20 20 21 21 21
13 14 16 17 15 15 17 16 15 14 13 13 16 13 11 11 11 11 10 9 9 9 9 10 12 12 13 13 14 15 16 16 16 17 18 19 19 20 20 20 21 21 21 21
12 13 14 17 15 21 15 11 12 13 13 12 12 11 10 10 10 9 8 9 9 9 9 10 12 12 12 13 15 16 17 17 17 18 18 19 20 21 21 21 21 21 21 21
9 12 16 18 18 15 13 12 13 13 13 11 11 11 10 9 9 9 8 7 7 7 7 10 11 11 12 15 16 16 17 17 18 18 19 20 20 21 21 22 22 22 22 22
10 10 14 16 19 21 13 10 9 9 15 9 10 10 9 9 12 11 8 9 10 9 10 11 13 14 15 17 16 17 18 19 19 19 20 20 19 20 21 21 22 21 21 22
14 14 16 16 18 16 11 9 10 16 14 9 8 8 9 11 9 8 10 11 11 11 12 14 14 15 16 17 17 18 19 19 18 18 20 20 20 21 21 22 22 22 23 22
14 16 16 16 18 19 10 10 13 12 10 10 10 10 11 10 10 10 10 10 11 12 14 15 16 18 18 17 18 19 19 18 18 20 21 22 22 22 22 24 23 23 24 24
16 16 19 16 16 12 11 12 10 9 9 10 11 11 10 10 10 10 10 10 10 11 14 16 17 19 19 19 18 19 19 19 20 21 23 23 23 24 23 24 25 25 24 24
16 14 17 17 14 13 12 11 10 9 10 10 10 10 9 10 9 10 10 11 12 15 15 17 18 19 20 19 18 19 20 21 22 23 24 24 24 25 24 24 24 24 24 23
14 15 17 18 15 14 14 12 12 12 12 13 12 12 12 11 11 11 11 10 12 12 15 16 16 17 18 20 20 21 22 22 23 24 25 25 24 24 24 23 24 23 22 22
13 15 17 18 15 14 14 14 14 15 15 16 16 15 13 13 12 12 12 11 11 11 16 17 17 17 18 20 20 23 23 23 24 25 25 25 25 24 23 23 23 20 20 19